FALCON 9 DEB (49462 NORAD) Tracking and Keplerian Element Data

This shows tracking and keplerian element data for the satellite.

Feedback or suggestion? Click here.




ElementValue
Catalog49462
NameFALCON 9 DEB
Epoch Orbit287
Epoch Day334.25857136
Epoch Year2021
RAAN47.3266
Inclination53.2028
Eccentricity0.0024556
Argument of Perigee94.8396
Mean Anonmoly265.5456
Mean Motion16.36996453
Decay Rate0.05705913
L11 49462U 21104BG 21334.25857136 .05705913 12254-4 51475-3 0 9996
L22 49462 53.2028 47.3266 0024556 94.8396 265.5456 16.36996453 2878

Live tracking and technical data element details for FALCON 9 DEB (NORAD 49462). FALCON 9 DEB can be tracked NOW for your location showing map with azimuth and elevation plus other details from your city location.

Track the satellite on the map from your city or location and see movement details for azimuth, elevation, latitude, longitude, range, height, and movement on the map or in text.







IsCatalogInMostPopularTable: catalog: 49462, numindb: 1
Update: records affected: 1



GetName: 49462 FALCON 9 DEB

Hit Count: updated at: Wed, 08 Dec 2021 14:59:20 GMT